Location: Bacea
(45.9500°N, 22.6667°E)
Time: 10:12:55
(UTC+00:00)

Cosmos 2344 - Pass Details

Date: 16 October 2021
Orbit: 1233 x 3009 km, 63.3° (Epoch: 07 December)

Event Time Altitude Azimuth Distance (km) Brightness Sun altitude
Rises 17:50:03 0° 319° (NW) 4,436 7.2 -23.1°
Reaches altitude 10° 17:52:42 10° 323° (NW) 3,585 6.5 -23.5°
Maximum altitude 18:01:31 62° 45° (NE) 1,958 4.3 -25.0°
Enters shadow 18:06:03 40° 108° (ESE) 2,689 4.7 -25.8°
